Regional Weather Roundup
Issued by NWS New Orleans/Baton Rouge, LA

Home | Current Version | Previous Version | Text Only | Print | Product List | Glossary Off
Versions: 1 2 3 4 5 6 7 8 9 10 11 12 13 14 15 16 17 18 19 20 21 22 23 24 25 26 27 28 29 30 31 32 33 34 35 36 37 38 39 40 41 42 43 44 45 46 47 48 49 50

465
ASUS44 KLIX 300501
RWRLIX
NEW ORLEANS REGIONAL WEATHER ROUNDUP
NATIONAL WEATHER SERVICE NEW ORLEANS LA
1200 AM CDT WED JUL 30 2014

NOTE: "FAIR" INDICATES FEW OR NO CLOUDS BELOW 12,000 FEET WITH NO
      SIGNIFICANT WEATHER AND/OR OBSTRUCTIONS TO VISIBILITY.
      SKY/WX - SKY CONDITION AND SIGNIFICANT WEATHER.
      TMP - AIR TEMPERATURE.     DP    - DEWPOINT TEMPERATURE.
      RH  - RELATIVE HUMIDITY.   PRES  - PRESSURE.
      HI  - HEAT INDEX.          WCI   - WIND CHILL INDEX.

*  THESE STATIONS ARE NOT NWS OR FAA STATIONS AND ARE NOT UNDER
   NWS QUALITY CONTROL.

LAZ038-040-048-061>063-065>067-069-300600-
SOUTHEAST LOUISIANA

CITY           SKY/WX    TMP DP  RH WIND       PRES   REMARKS
N.O. AUDUBON     N/A     78  68  71 MISG        N/A
N.O. INTL ARPT PTCLDY    81  68  64 N13       30.04S
N.O. LAKEFRONT PTCLDY    83  68  60 NE22      30.05R
N.O. DOWNTOWN*   N/A     84  63  48 N7        30.04F
SLIDELL        CLEAR     74  68  81 CALM      30.05R
BATON ROUGE    CLEAR     75  67  76 NE6       30.06R
BOOTHVILLE     CLEAR     78  71  79 W3        30.04F
BELLE CHASSE   PTCLDY    72  68  87 CALM      30.04R
BOGALUSA*        N/A     73  67  81 CALM      30.07S
GALLIANO*      NOT AVBL
NEW ROADS*       N/A     74  68  83 NE6       30.07R
GONZALES*        N/A     72  71  99 CALM      30.05S
HAMMOND*       CLEAR     75  64  69 N3        30.07R
HOUMA*         CLEAR     74  67  78 N3        30.05R
PORT FOURCHON* CLEAR     82  70  65 CALM      30.06S

$$

MSZ070-080>082-300600-
SOUTHERN MISSISSIPPI

CITY           SKY/WX    TMP DP  RH WIND       PRES   REMARKS
MCCOMB         CLEAR     73  63  70 N5        30.08R
GULFPORT       PTCLDY    81  66  60 N7        30.03R
BILOXI         CLEAR     77  67  71 NE7       30.03R
PASCAGOULA     MOCLDY    75  68  78 NE5       30.03R

$$

COASTAL OBSERVATIONS
LAKE AND NEARSHORE STATIONS

STATION/POSITION TIME  TEMP    WIND        PRES    WAVE
                       AIR SEA DIR/SP/G            HT/PER
                 (UTC) (F)     (DEG/KT/KT) (MB)    (FT/S)
PASCAGOULA       0400   80      10/  6/  9 1016.2
WAVELAND YACHT   0400   80      10/ 11/ 12 1016.4
GRAND ISLE       0400   84 86   20/  7/  9 1017.9
SOUTHWEST PASS   0400   83 85  360/  3/  4 1017.6
NEW CANAL        0400   85 85  360/ 12/ 17 1017.7
SHELL BEACH      0400   85 82  330/  8/ 10 1017.0

OFFSHORE STATIONS

STATION/POSITION TIME  TEMP    WIND        PRES    WAVE
                       AIR SEA DIR/SP/G            HT/PER
                 (UTC) (F)     (DEG/KT/KT) (MB)    (FT/S)
64 S DAUPHIN ISL 0410   83 86  320/  8/ 10 1016.9

$$




USA.gov is the U.S. government's official web portal to all federal, state and local government web resources and services.